This demonstration page uses our WeatherBlox Daily Observations layout. Learn more.

Left ArrowRight Arrow

Hourly Observations for August 23, 2015

Temp ( °F °C ) Dew Point ( °F °C ) Humidity (%) Winds ( mph kmh ) Pressure ( in mb ) Visibility ( mi km ) Precip ( " mm )
12:15 am 00:15 Clear 58 14.7 46 7.5 62 62 N 9 15 30.09 1019 10 16 N/A
12:35 am 00:35 Clear 56 13.5 46 7.5 67 67 N 7 11 30.12 1020 10 16 N/A
12:55 am 00:55 Clear 54 12.4 46 7.8 74 74 N 6 9 30.15 1021 10 16 N/A
1:15 am 01:15 Clear 53 11.9 46 7.6 75 75 N 6 9 30.15 1021 10 16 N/A
1:35 am 01:35 Clear 53 11.9 44 6.7 71 71 NNW 5 7 30.15 1021 10 16 N/A
1:55 am 01:55 Clear 52 11 44 6.6 75 75 NNW 8 13 30.18 1022 10 16 N/A
2:15 am 02:15 Clear 55 12.5 42 5.7 64 64 N 14 22 30.15 1021 10 16 N/A
2:35 am 02:35 Clear 55 12.6 42 5.5 62 62 NNW 13 20 30.15 1021 10 16 N/A
2:55 am 02:55 Clear 54 12.1 42 5.4 64 64 N 15 24 30.15 1021 10 16 N/A
3:15 am 03:15 Clear 53 11.7 42 5.5 66 66 NNW 12 19 30.15 1021 10 16 N/A
3:35 am 03:35 Clear 51 10.7 42 5.8 72 72 NNW 10 17 30.18 1022 10 16 N/A
3:55 am 03:55 Clear 51 10.6 42 5.7 72 72 NNW 8 13 30.18 1022 10 16 N/A
4:15 am 04:15 Clear 50 10.1 42 5.8 75 75 NNW 9 15 30.18 1022 10 16 N/A
4:35 am 04:35 Clear 50 9.9 43 5.9 76 76 NNW 9 15 30.18 1022 10 16 N/A
4:55 am 04:55 Clear 50 9.9 42 5.7 75 75 NNW 12 19 30.18 1022 10 16 N/A
5:15 am 05:15 Clear 50 10 42 5.5 74 74 NNW 12 19 30.18 1022 10 16 N/A
5:35 am 05:35 Clear 50 10.1 41 5.2 72 72 NNW 13 20 30.18 1022 10 16 N/A
5:55 am 05:55 Clear 50 9.8 41 5.2 73 73 NNW 10 17 30.21 1023 10 16 N/A
6:15 am 06:15 Clear 49 9.5 41 5.1 74 74 NNW 9 15 30.21 1023 10 16 N/A
6:35 am 06:35 Clear 48 8.8 41 5.1 78 78 NW 6 9 30.21 1023 10 16 N/A
6:55 am 06:55 Clear 46 7.9 41 5.1 83 83 NW 6 9 30.24 1024 10 16 N/A
7:15 am 07:15 Sunny 46 7.6 42 5.3 86 86 NW 5 7 30.27 1025 10 16 N/A
7:35 am 07:35 Sunny 46 7.7 42 5.5 86 86 NW 7 11 30.27 1025 10 16 N/A
7:55 am 07:55 Sunny 48 8.7 43 6.1 84 84 NW 6 9 30.24 1024 10 16 N/A
8:15 am 08:15 Sunny 50 9.9 43 6.2 78 78 NW 7 11 30.27 1025 10 16 N/A
8:35 am 08:35 Sunny 51 10.8 43 6.3 74 74 NNW 10 17 30.27 1025 10 16 N/A
8:55 am 08:55 Sunny 53 11.8 45 7 73 73 NW 9 15 30.27 1025 10 16 N/A
9:15 am 09:15 Sunny 56 13.2 46 7.5 69 69 NW 8 13 30.24 1024 10 16 N/A
9:35 am 09:35 Sunny 58 14.3 46 7.5 64 64 NW 8 13 30.24 1024 10 16 N/A
9:55 am 09:55 Sunny 59 15 45 7 59 59 NW 10 17 30.24 1024 10 16 N/A
10:15 am 10:15 Sunny 60 15.6 43 6.2 54 54 N 13 20 30.21 1023 10 16 N/A
10:35 am 10:35 Sunny 61 16 43 5.9 51 51 NNW 12 19 30.21 1023 10 16 N/A
10:55 am 10:55 Sunny 62 16.5 43 6.1 50 50 N 15 24 30.21 1023 10 16 N/A
11:15 am 11:15 Sunny 63 17 43 6.1 49 49 NNW 10 17 30.21 1023 10 16 N/A
11:35 am 11:35 Sunny 63 17.3 44 6.6 50 50 NW 9 15 30.21 1023 10 16 N/A
11:55 am 11:55 Sunny 64 17.8 44 6.8 49 49 NNW 9 15 30.21 1023 10 16 N/A
12:15 pm 12:15 Sunny 65 18.3 44 6.6 47 47 NW 10 17 30.21 1023 10 16 N/A
12:35 pm 12:35 Sunny 66 18.8 44 6.5 45 45 NNW 10 17 30.18 1022 10 16 N/A
12:55 pm 12:55 Sunny 66 19 44 6.6 45 45 NW 8 13 30.18 1022 10 16 N/A
1:15 pm 13:15 Sunny 66 19.1 45 7.1 46 46 NW 12 19 30.18 1022 10 16 N/A
1:35 pm 13:35 Sunny 67 19.5 45 7.1 45 45 NNW 12 19 30.18 1022 10 16 N/A
1:55 pm 13:55 Sunny 68 20 44 6.8 42 42 WNW 8 13 30.18 1022 10 16 N/A
2:15 pm 14:15 Sunny 69 20.3 47 8.2 46 46 NW 8 13 30.15 1021 10 16 N/A
2:35 pm 14:35 Sunny 69 20.3 45 7 42 42 NNW 6 9 30.15 1021 10 16 N/A
2:55 pm 14:55 Sunny 69 20.8 46 7.5 42 42 NW 9 15 30.15 1021 10 16 N/A
3:15 pm 15:15 Sunny 70 21 46 8 43 43 W 8 13 30.15 1021 10 16 N/A
3:35 pm 15:35 Sunny 70 21.1 45 7.1 40 40 NW 8 13 30.12 1020 10 16 N/A
3:55 pm 15:55 Sunny 71 21.5 44 6.7 38 38 NW 5 7 30.09 1019 10 16 N/A
4:15 pm 16:15 Sunny 71 21.5 45 7.2 40 40 W 5 7 30.09 1019 10 16 N/A
4:35 pm 16:35 Sunny 71 21.7 45 7 39 39 W 8 13 30.09 1019 10 16 N/A
4:55 pm 16:55 Sunny 71 21.7 44 6.5 37 37 W 8 13 30.09 1019 10 16 N/A
5:15 pm 17:15 Sunny 71 21.8 44 6.7 38 38 WSW 5 7 30.06 1018 10 16 N/A
5:35 pm 17:35 Sunny 71 21.9 44 6.7 37 37 W 6 9 30.06 1018 10 16 N/A
5:55 pm 17:55 Sunny 71 21.9 44 6.4 37 37 W 6 9 30.06 1018 10 16 N/A
6:15 pm 18:15 Sunny 72 22 48 8.7 43 43 W 3 6 30.06 1018 10 16 N/A
6:35 pm 18:35 Sunny 71 21.6 48 8.8 44 44 Calm 30.06 1018 10 16 N/A
6:55 pm 18:55 Sunny 70 21.2 49 9.6 48 48 WSW 5 7 30.09 1019 10 16 N/A
7:15 pm 19:15 Sunny 69 20.5 51 10.4 52 52 WSW 3 6 30.09 1019 10 16 N/A
9:55 pm 21:55 Clear 57 13.8 49 9.6 76 76 SSW 5 7 30.15 1021 10 16 N/A
10:15 pm 22:15 Clear 55 13 49 9.6 80 80 S 3 6 30.15 1021 10 16 N/A
10:35 pm 22:35 Clear 56 13.1 49 9.6 79 79 Calm 30.15 1021 10 16 N/A
10:55 pm 22:55 Clear 53 11.9 48 9 83 83 Calm 30.15 1021 10 16 N/A
11:15 pm 23:15 Clear 54 12.3 49 9.3 82 82 SSW 3 6 30.15 1021 10 16 N/A
11:35 pm 23:35 Clear 53 11.9 48 9 83 83 Calm 30.15 1021 10 16 N/A
11:55 pm 23:55 Clear 50 10 47 8.2 89 89 Calm 30.18 1022 10 16 N/A

Powered by AerisWeather